Starlink 11130

operational
NORAD ID: 59950 Int'l Des: 2024-107 Owner: SPXS Country: US Constellation: starlink
LEOCIRCULAR

Über Starlink 11130

Beschreibung wird geladen...

Live-Position

3D-Globus wird geladen...

Nächste Überflüge

Höhenverlauf

Altitude vs Time

uPlot chart will show altitude changes over time

Zweizeiliger Elementsatz

1 59950U 24107F 25307.94027193 -.00000061 00000-0 43528-5 0 9999
2 59950 53.1591 151.3081 0000843 83.2956 276.8158 15.69707969 82399
Epoch: 3. Nov. 2025 • Age: 18 hours

Aktueller Status

Höhe 361.0 km
Geschwindigkeit 7.69 km/s
Subsatellitenpunkt -1.96°S, 42.77°E
Startdatum 5. Juni 2024
Alter 1.4 years
Typ internet

Technische Details

Klassifizierung Payload
Masse 960.00 kg
Trockenmasse 910.00 kg
Gesamtmasse 960.00 kg
Länge 0.30 m
Durchmesser 4.10 m
Spannweite 29.00 m
Form Box + pan
Hersteller SPXS
Bus-Typ Starlink V2MD
Phasenstatus In Orbit
Besitzer/Staat SPXS/US

Große Konstellationen

Loading constellations...